This is the latest recevied weather packets stored in our database for station/object F5MAP-5. If no packets are shown the sender has not sent any weather packets the latest 10 day(s).
| Time | Temp. | Humidity | Pressure | Rain* | Wind** | Luminosity | Snow |
|---|---|---|---|---|---|---|---|
| 1777927934 | 13.33° C | 87% | 1013 hPa | 0 mm | - | 0 W/m² | - |
| 1777927334 | 13.89° C | 87% | 1013.1 hPa | 0 mm | - | 0 W/m² | - |
| 1777926734 | 13.89° C | 87% | 1013.1 hPa | 0 mm | - | 0 W/m² | - |
| 1777926137 | 14.44° C | 87% | 1013.1 hPa | 0 mm | - | 0 W/m² | - |
| 1777925533 | 14.44° C | 87% | 1013.1 hPa | 0 mm | - | 0 W/m² | - |
| 1777924933 | 14.44° C | 86% | 1013.1 hPa | 0 mm | - | 0 W/m² | - |
| 1777924334 | 14.44° C | 86% | 1013.1 hPa | 0 mm | - | 0 W/m² | - |
| 1777923734 | 14.44° C | 86% | 1013.1 hPa | 0 mm | - | 0 W/m² | - |
| 1777923134 | 14.44° C | 85% | 1012.9 hPa | 0 mm | - | 0 W/m² | - |
| 1777922534 | 15° C | 85% | 1012.7 hPa | 0 mm | - | 0 W/m² | - |
| 1777921935 | 15° C | 85% | 1012.8 hPa | 0 mm | - | 0 W/m² | - |
| 1777921334 | 15° C | 84% | 1012.7 hPa | 0 mm | - | 0 W/m² | - |
| 1777920734 | 15° C | 84% | 1012.7 hPa | 0 mm | - | 0 W/m² | - |
| 1777920135 | 15° C | 84% | 1012.6 hPa | 0 mm | - | 5 W/m² | - |
| 1777919534 | 15.56° C | 83% | 1012.6 hPa | 0 mm | - | 7 W/m² | - |
| 1777918933 | 15.56° C | 83% | 1012.7 hPa | 0 mm | - | 11 W/m² | - |
| 1777918334 | 15.56° C | 83% | 1012.8 hPa | 0 mm | - | 23 W/m² | - |
| 1777917733 | 16.11° C | 83% | 1012.8 hPa | 0 mm | - | 39 W/m² | - |
| 1777917134 | 16.11° C | 82% | 1012.9 hPa | 0 mm | - | 46 W/m² | - |
| 1777916534 | 16.67° C | 81% | 1013.1 hPa | 0 mm | - | 53 W/m² | - |
| 1777915934 | 16.67° C | 79% | 1013.2 hPa | 0 mm | - | 37 W/m² | - |
| 1777915334 | 17.22° C | 78% | 1013.3 hPa | 0 mm | - | 35 W/m² | - |
| 1777914734 | 17.22° C | 77% | 1013.4 hPa | 0 mm | - | 28 W/m² | - |
| 1777914134 | 17.78° C | 77% | 1013.5 hPa | 0 mm | - | 35 W/m² | - |
| 1777913534 | 17.78° C | 77% | 1013.6 hPa | 0 mm | - | 49 W/m² | - |
* Rain latest hour (hover to see other rain measurements)
** Current wind speed in m/s (hover to see current wind gust speed)